Weather History for KANJ - April, 2013

Change the Weather History Date:

Saturday, April 6, 2013

  Actual Average Record
Temperature  
Mean Temperature 26 °F 36 °F  
Max Temperature 33 °F 44 °F 71 °F (1929)
Min Temperature 18 °F 27 °F 6 °F (1950)
Degree Days  
Heating Degree Days 39 29  
Month to date heating degree days 240 183  
Since 1 July heating degree days 7186 7509  
Cooling Degree Days 0 0  
Month to date cooling degree days 0 0  
Year to date cooling degree days 0 0  
Moisture  
Dew Point 24 °F    
Average Humidity 78    
Maximum Humidity 92    
Minimum Humidity 63    
Precipitation  
Precipitation 0.51 in 0.08 in 1.53 in (1999)
Month to date precipitation 0.85 0.49  
Year to date precipitation 9.54 5.97  
Snow  
Snow 2.90 in 0.30 in 9.00 in (1979)
Month to date snowfall 6.8 2.0  
Since 1 July snowfall 146.4 115.6  
Snow Depth 18.00 in    
Sea Level Pressure  
Sea Level Pressure 29.95 in    
Wind  
Wind Speed 8 mph (ESE)    
Max Wind Speed 21 mph    
Max Gust Speed 30 mph    
Visibility 5 miles    
Events Fog , Rain , Snow    
T = Trace of Precipitation, MM = Missing Value Source: NWS Daily Summary

Daily Weather History Graph

Daily Weather History Graph

Search for Another Location

Airport or City:

Trip Planner

Search our weather history database for the weather conditions in past years. The results will help you decide how hot, cold, wet, or windy it might be!

Date:

Astronomy

Apr. 06, 2013 Rise Set
Actual Time 7:06 AM EDT 8:13 PM EDT
Civil Twilight 6:36 AM EDT 8:44 PM EDT
Nautical Twilight 5:59 AM EDT 9:21 PM EDT
Astronomical Twilight 5:19 AM EDT 10:00 PM EDT
Moon 5:02 AM EDT (4/6) 4:30 PM EDT (4/6)
Length of Visible Light 14h 08m
Length of Day
13h 06m
Waning Crescent, 15% of the Moon is Illuminated
Apr 6
Waning Crescent
Apr 10
New
Apr 18
First Quarter
Apr 25
Full
May 2
Last Quarter

Hourly Weather History & Observations

Time (EDT) Temp. Windchill Dew Point Humidity Pressure Visibility Wind Dir Wind Speed Gust Speed Precip Events Conditions
12:55 AM 23.0 °F 18.4 °F 15.1 °F 72% 30.22 in 10.0 mi North 3.5 mph - N/A   Clear
1:55 AM 21.0 °F - 15.1 °F 78% 30.22 in 10.0 mi Calm Calm - N/A   Clear
2:55 AM 19.0 °F - 12.9 °F 77% 30.23 in 10.0 mi Calm Calm - N/A   Clear
3:55 AM 19.9 °F - 14.0 °F 78% 30.22 in 10.0 mi Calm Calm - N/A   Clear
4:55 AM 19.9 °F - 15.1 °F 81% 30.22 in 10.0 mi Calm Calm - N/A   Clear
5:55 AM 19.9 °F 14.9 °F 15.1 °F 81% 30.22 in 10.0 mi East 3.5 mph - N/A   Mostly Cloudy
6:55 AM 19.0 °F 13.9 °F 15.1 °F 85% 30.21 in 10.0 mi East 3.5 mph - N/A   Overcast
7:55 AM 19.9 °F 13.4 °F 16.0 °F 85% 30.21 in 10.0 mi East 4.6 mph - N/A   Overcast
8:55 AM 23.0 °F 13.9 °F 17.1 °F 78% 30.20 in 10.0 mi East 8.1 mph - N/A   Overcast
9:55 AM 26.1 °F 18.4 °F 17.1 °F 69% 30.19 in 10.0 mi ESE 6.9 mph - N/A   Overcast
10:55 AM 28.0 °F 20.0 °F 17.1 °F 63% 30.16 in 10.0 mi East 8.1 mph - N/A   Overcast
11:55 AM 28.9 °F 21.1 °F 18.0 °F 64% 30.14 in 10.0 mi East 8.1 mph - N/A   Overcast
12:15 PM 28.9 °F 19.8 °F 19.0 °F 67% 30.10 in 2.5 mi ESE 10.4 mph - 0.00 in Snow Light Snow
12:24 PM 28.9 °F 21.1 °F 19.9 °F 69% 30.09 in 1.2 mi ESE 8.1 mph - 0.00 in Snow Light Snow
12:55 PM 28.0 °F 18.6 °F 23.0 °F 81% 30.10 in 1.0 mi ESE 10.4 mph - 0.01 in Snow Light Snow
1:01 PM 28.0 °F 19.3 °F 23.0 °F 81% 30.07 in 0.8 mi East 9.2 mph - 0.00 in Snow Light Snow
1:13 PM 28.0 °F 20.0 °F 24.1 °F 85% 30.07 in 1.0 mi East 8.1 mph - 0.01 in Snow Light Snow
1:36 PM 28.9 °F 20.4 °F 25.0 °F 85% 30.06 in 0.5 mi ESE 9.2 mph - 0.02 in Fog , Snow Snow
1:55 PM 28.9 °F 21.1 °F 25.0 °F 85% 30.07 in 0.8 mi ESE 8.1 mph - 0.04 in Snow Light Snow
2:10 PM 28.9 °F 21.9 °F 26.1 °F 89% 30.02 in 0.5 mi ESE 6.9 mph - 0.01 in Fog , Snow Snow
2:55 PM 30.9 °F 21.7 °F 27.0 °F 85% 30.03 in 0.5 mi ESE 11.5 mph - 0.08 in Fog , Snow Snow
3:07 PM 30.9 °F 21.7 °F 28.0 °F 89% 29.98 in 1.2 mi ESE 11.5 mph 19.6 mph 0.00 in Snow Light Snow
3:18 PM 32.0 °F 23.6 °F 28.0 °F 85% 29.96 in 0.5 mi SE 10.4 mph 18.4 mph 0.01 in Fog , Snow Snow
3:55 PM 30.9 °F 20.7 °F 28.0 °F 89% 29.96 in 0.2 mi ESE 13.8 mph 21.9 mph 0.04 in Fog , Snow Snow
4:55 PM 32.0 °F 22.1 °F 28.0 °F 85% 29.92 in 0.5 mi SE 13.8 mph 25.3 mph 0.05 in Fog , Snow Snow
5:55 PM 32.0 °F 20.8 °F 28.9 °F 88% 29.86 in 0.8 mi SE 17.3 mph 26.5 mph 0.07 in Snow Light Snow
6:01 PM 32.0 °F 21.2 °F 28.9 °F 88% 29.82 in 2.0 mi ESE 16.1 mph 27.6 mph 0.01 in Snow Light Snow
6:09 PM 32.0 °F 22.1 °F 28.9 °F 88% 29.82 in 4.0 mi ESE 13.8 mph 26.5 mph 0.01 in   Overcast
6:25 PM 33.1 °F 22.6 °F 28.9 °F 85% 29.80 in 4.0 mi ESE 16.1 mph 25.3 mph 0.02 in Rain Light Freezing Rain
6:35 PM 33.1 °F 23.0 °F 28.9 °F 85% 29.80 in 5.0 mi ESE 15.0 mph 27.6 mph 0.03 in Rain Light Freezing Rain
6:46 PM 33.1 °F 24.9 °F 28.9 °F 85% 29.84 in 7.0 mi SE 10.4 mph 24.2 mph 0.04 in Rain Light Freezing Rain
6:55 PM 33.1 °F 23.4 °F 28.9 °F 85% 29.86 in 7.0 mi SE 13.8 mph - 0.05 in Rain Light Freezing Rain
7:11 PM 33.1 °F 23.9 °F 28.9 °F 85% 29.82 in 10.0 mi SE 12.7 mph - 0.00 in   Overcast
7:55 PM 32.0 °F 22.1 °F 28.0 °F 85% 29.84 in 3.0 mi ESE 13.8 mph 27.6 mph 0.00 in Snow Light Snow
8:01 PM 32.0 °F 21.6 °F 28.0 °F 85% 29.80 in 1.8 mi ESE 15.0 mph 29.9 mph 0.00 in Snow Light Snow
8:12 PM 32.0 °F 23.0 °F 28.0 °F 85% 29.79 in 2.5 mi ESE 11.5 mph 25.3 mph 0.00 in Snow Light Snow
8:20 PM 32.0 °F 20.8 °F 28.0 °F 85% 29.79 in 3.0 mi SE 17.3 mph 25.3 mph 0.01 in Snow Light Snow
8:35 PM 32.0 °F 23.6 °F 28.0 °F 85% 29.77 in 3.0 mi ESE 10.4 mph 19.6 mph 0.02 in Snow Light Snow
8:55 PM 32.0 °F 23.6 °F 28.0 °F 85% 29.79 in 3.0 mi ESE 10.4 mph 21.9 mph 0.04 in Snow Light Snow
9:55 PM 32.0 °F 23.0 °F 28.0 °F 85% 29.76 in 10.0 mi ESE 11.5 mph 20.7 mph 0.01 in   Overcast
10:06 PM 32.0 °F 22.5 °F 28.0 °F 85% 29.73 in 5.0 mi East 12.7 mph 19.6 mph 0.00 in Snow Light Snow
10:37 PM 32.0 °F 23.6 °F 28.0 °F 85% 29.70 in 6.0 mi ESE 10.4 mph 19.6 mph 0.01 in Rain Light Freezing Rain
10:44 PM 32.0 °F 23.0 °F 28.0 °F 85% 29.70 in 7.0 mi ESE 11.5 mph 19.6 mph 0.02 in Rain Light Freezing Rain
10:55 PM 32.0 °F 24.2 °F 28.9 °F 88% 29.72 in 6.0 mi ESE 9.2 mph 18.4 mph 0.02 in Rain Light Freezing Rain
11:18 PM 33.1 °F 26.1 °F 28.9 °F 85% 29.68 in 6.0 mi East 8.1 mph 17.3 mph 0.03 in Rain Light Freezing Rain
11:30 PM 33.1 °F 25.5 °F 28.9 °F 85% 29.67 in 6.0 mi ESE 9.2 mph - 0.04 in Rain Light Freezing Rain
11:39 PM 33.1 °F 25.5 °F 28.9 °F 85% 29.67 in 6.0 mi East 9.2 mph - 0.05 in Rain Light Freezing Rain
11:55 PM 33.1 °F 25.5 °F 30.0 °F 89% 29.68 in 6.0 mi ESE 9.2 mph - 0.06 in Rain Light Freezing Rain